Charlevoix, MI

6:11 PM EDT on May 22, 2018 (GMT -0400)
Charlevoix Municipal

Weather History for KCVX - February, 2014

Change the Weather History Date:

Tuesday, February 4, 2014

  Actual Average Record
Temperature  
Mean Temperature 14 °F -  
Max Temperature 19 °F 26 °F 46 °F (2005)
Min Temperature 8 °F 16 °F -7 °F (2009)
Degree Days  
Heating Degree Days 52    
Moisture  
Dew Point 10 °F    
Average Humidity 82    
Maximum Humidity 92    
Minimum Humidity 67    
Precipitation  
Precipitation 0.00 in - - ()
Sea Level Pressure  
Sea Level Pressure 30.37 in    
Wind  
Wind Speed 4 mph (NNW)    
Max Wind Speed 10 mph    
Max Gust Speed -    
Visibility 9 miles    
Events Snow    
Averages and records for this station are not official NWS values.
T = Trace of Precipitation, MM = Missing Value Source: NWS Daily Summary

Daily Weather History Graph

Daily Weather History Graph

Search for Another Location

Airport or City:

Astronomy

Feb. 04, 2014 Rise Set
Actual Time 7:57 AM EST 5:52 PM EST
Civil Twilight 7:26 AM EST 6:23 PM EST
Nautical Twilight 6:51 AM EST 6:59 PM EST
Astronomical Twilight 6:17 AM EST 7:33 PM EST
Moon 10:18 AM EST (2/4) No Moon Set
Length of Visible Light 10h 57m
Length of Day
9h 54m
Waxing Crescent, 29% of the Moon is Illuminated
Feb 4
Waxing Crescent
Feb 6
First Quarter
Feb 14
Full
Feb 22
Last Quarter
Mar 1
New

Hourly Weather History & Observations

Time (EST) Temp. Windchill Dew Point Humidity Pressure Visibility Wind Dir Wind Speed Gust Speed Precip Events Conditions
12:14 AM 15.8 °F 4.2 °F 9.3 °F 76% 30.29 in 10.0 mi SSW 9.2 mph - N/A   Clear
12:34 AM 15.1 °F 6.4 °F 9.1 °F 77% 30.30 in 10.0 mi SSW 5.8 mph - N/A   Clear
12:55 AM 14.7 °F 2.9 °F 8.8 °F 77% 30.30 in 10.0 mi South 9.2 mph - N/A   Clear
1:14 AM 14.4 °F 2.4 °F 8.8 °F 79% 30.30 in 10.0 mi South 9.2 mph - N/A   Clear
1:34 AM 14.4 °F 2.4 °F 9.1 °F 80% 30.30 in 10.0 mi SSW 9.2 mph - N/A   Scattered Clouds
1:55 AM 15.3 °F 2.8 °F 10.0 °F 80% 30.30 in 10.0 mi SSW 10.4 mph - N/A   Mostly Cloudy
2:14 AM 15.1 °F 3.3 °F 10.2 °F 81% 30.30 in 10.0 mi SSW 9.2 mph - N/A   Mostly Cloudy
2:34 AM 15.8 °F 7.2 °F 10.8 °F 80% 30.31 in 10.0 mi SSW 5.8 mph - N/A   Overcast
2:55 AM 15.8 °F 8.6 °F 10.8 °F 80% 30.32 in 10.0 mi SW 4.6 mph - N/A   Overcast
3:14 AM 16.0 °F 7.4 °F 11.1 °F 81% 30.32 in 10.0 mi SW 5.8 mph - N/A   Overcast
3:35 AM 15.8 °F 6.1 °F 11.1 °F 82% 30.33 in 10.0 mi SSW 6.9 mph - N/A Snow Light Snow
3:55 AM 15.8 °F 8.6 °F 11.1 °F 82% 30.34 in 10.0 mi SSW 4.6 mph - N/A Snow Light Snow
4:14 AM 15.3 °F 9.6 °F 10.8 °F 82% 30.34 in 7.0 mi SW 3.5 mph - N/A Snow Light Snow
4:35 AM 13.5 °F - 9.1 °F 83% 30.34 in 10.0 mi Calm Calm - N/A   Mostly Cloudy
4:55 AM 11.7 °F - 8.1 °F 85% 30.35 in 10.0 mi Calm Calm - N/A   Mostly Cloudy
5:14 AM 9.9 °F - 6.4 °F 86% 30.35 in 10.0 mi Calm Calm - N/A   Mostly Cloudy
5:35 AM 9.0 °F - 6.8 °F 91% 30.35 in 10.0 mi Calm Calm - N/A   Mostly Cloudy
5:54 AM 8.8 °F - 6.6 °F 91% 30.36 in 10.0 mi Calm Calm - N/A   Overcast
6:14 AM 9.5 °F - 7.2 °F 90% 30.37 in 10.0 mi Calm Calm - N/A   Overcast
6:35 AM 9.7 °F - 7.3 °F 90% 30.37 in 10.0 mi Calm Calm - N/A   Overcast
6:54 AM 9.5 °F - 6.8 °F 89% 30.37 in 10.0 mi Calm Calm - N/A   Overcast
7:14 AM 10.6 °F - 7.9 °F 89% 30.37 in 7.0 mi Calm Calm - N/A   Overcast
7:35 AM 11.1 °F - 8.4 °F 89% 30.38 in 10.0 mi Calm Calm - N/A   Overcast
7:54 AM 11.8 °F - 9.1 °F 89% 30.38 in 10.0 mi Calm Calm - N/A   Overcast
8:14 AM 11.3 °F - 8.6 °F 89% 30.39 in 10.0 mi Calm Calm - N/A   Overcast
8:35 AM 12.0 °F - 9.3 °F 89% 30.40 in 4.0 mi Calm Calm - N/A Snow Light Snow
8:54 AM 11.1 °F - 8.1 °F 87% 30.41 in 4.0 mi Calm Calm - N/A Snow Light Snow
9:15 AM 10.4 °F - 7.9 °F 90% 30.41 in 5.0 mi Calm Calm - N/A Snow Light Snow
9:35 AM 9.5 °F - 7.3 °F 91% 30.41 in 10.0 mi Calm Calm - N/A   Clear
9:54 AM 9.5 °F - 7.5 °F 92% 30.42 in 10.0 mi Calm Calm - N/A   Clear
10:15 AM 11.3 °F - 8.8 °F 90% 30.42 in 10.0 mi Calm Calm - N/A   Clear
10:35 AM 13.1 °F - 9.9 °F 87% 30.42 in 0.5 mi Calm Calm - N/A Snow Light Snow
10:54 AM 14.7 °F - 11.7 °F 88% 30.43 in 1.5 mi Calm Calm - N/A   Mist
11:15 AM 16.7 °F - 13.3 °F 86% 30.43 in 1.8 mi Calm Calm - N/A   Mist
11:34 AM 17.2 °F - 12.2 °F 81% 30.43 in 10.0 mi Calm Calm - N/A   Clear
11:54 AM 18.5 °F - 12.2 °F 76% 30.43 in 10.0 mi Calm Calm - N/A   Clear
12:14 PM 19.0 °F - 12.0 °F 74% 30.42 in 10.0 mi Calm Calm - N/A   Clear
12:34 PM 19.8 °F - 12.2 °F 72% 30.40 in 10.0 mi Calm Calm - N/A   Clear
12:55 PM 18.5 °F 8.4 °F 11.3 °F 73% 30.39 in 10.0 mi North 8.1 mph - N/A   Clear
1:14 PM 18.3 °F 9.1 °F 11.1 °F 73% 30.39 in 10.0 mi North 6.9 mph - N/A   Clear
1:34 PM 18.5 °F 10.4 °F 11.3 °F 73% 30.39 in 10.0 mi North 5.8 mph - N/A   Clear
1:55 PM 18.5 °F 13.3 °F 11.5 °F 74% 30.39 in 10.0 mi North 3.5 mph - N/A   Clear
2:14 PM 18.5 °F 13.3 °F 11.1 °F 73% 30.39 in 10.0 mi NNW 3.5 mph - N/A   Clear
2:34 PM 17.6 °F 12.3 °F 11.1 °F 76% 30.39 in 10.0 mi NNW 3.5 mph - N/A   Clear
2:55 PM 17.6 °F 12.3 °F 11.3 °F 76% 30.38 in 10.0 mi NNW 3.5 mph - N/A   Clear
3:14 PM 17.6 °F 10.7 °F 11.7 °F 78% 30.38 in 10.0 mi NNW 4.6 mph - N/A   Clear
3:34 PM 17.4 °F 10.4 °F 12.2 °F 80% 30.38 in 10.0 mi NNW 4.6 mph - N/A   Clear
3:54 PM 17.1 °F 10.0 °F 12.2 °F 81% 30.38 in 10.0 mi NNW 4.6 mph - N/A   Clear
4:14 PM 16.7 °F 8.3 °F 12.2 °F 82% 30.37 in 10.0 mi North 5.8 mph - N/A   Clear
4:35 PM 16.3 °F 6.7 °F 12.2 °F 84% 30.37 in 10.0 mi North 6.9 mph - N/A   Clear
4:54 PM 15.8 °F - 11.7 °F 84% 30.39 in 10.0 mi Calm Calm - N/A   Clear
5:14 PM 16.0 °F - 11.5 °F 82% 30.38 in 10.0 mi Calm Calm - N/A   Clear
5:34 PM 15.1 °F - 11.3 °F 85% 30.38 in 10.0 mi Calm Calm - N/A   Clear
5:54 PM 15.1 °F - 11.3 °F 85% 30.39 in 10.0 mi Calm Calm - N/A   Clear
6:15 PM 14.2 °F - 10.9 °F 87% 30.37 in 10.0 mi Calm Calm - N/A   Clear
6:34 PM 14.9 °F - 11.3 °F 86% 30.37 in 10.0 mi Calm Calm - N/A   Clear
6:54 PM 13.6 °F - 10.2 °F 86% 30.38 in 10.0 mi Calm Calm - N/A   Clear
7:15 PM 14.0 °F 8.2 °F 11.3 °F 89% 30.39 in 10.0 mi North 3.5 mph - N/A   Clear
7:34 PM 14.7 °F - 11.3 °F 86% 30.38 in 10.0 mi Calm Calm - N/A   Clear
7:55 PM 14.0 °F - 10.6 °F 86% 30.37 in 10.0 mi Calm Calm - N/A   Clear
8:14 PM 15.1 °F - 11.3 °F 85% 30.37 in 10.0 mi Calm Calm - N/A   Clear
8:34 PM 13.3 °F - 9.9 °F 86% 30.37 in 10.0 mi Calm Calm - N/A   Clear
8:55 PM 13.1 °F - 10.4 °F 89% 30.36 in 10.0 mi Calm Calm - N/A   Clear
9:14 PM 12.7 °F - 9.7 °F 88% 30.35 in 10.0 mi Calm Calm - N/A   Clear
9:34 PM 14.2 °F 8.4 °F 10.9 °F 87% 30.35 in 10.0 mi NNE 3.5 mph - N/A   Clear
9:55 PM 15.8 °F 10.2 °F 10.4 °F 79% 30.35 in 10.0 mi ENE 3.5 mph - N/A   Mostly Cloudy
10:14 PM 15.8 °F 10.2 °F 10.2 °F 79% 30.35 in 10.0 mi East 3.5 mph - N/A   Overcast
10:34 PM 15.8 °F 8.6 °F 9.1 °F 75% 30.34 in 10.0 mi ENE 4.6 mph - N/A   Overcast
10:55 PM 16.0 °F 6.3 °F 8.1 °F 71% 30.34 in 10.0 mi ENE 6.9 mph - N/A   Overcast
11:14 PM 16.5 °F 6.0 °F 7.5 °F 68% 30.33 in 10.0 mi NE 8.1 mph - N/A   Overcast
11:35 PM 16.2 °F 5.5 °F 6.8 °F 67% 30.32 in 10.0 mi NE 8.1 mph - N/A   Mostly Cloudy
11:54 PM 15.8 °F 5.1 °F 6.8 °F 68% 30.33 in 10.0 mi NE 8.1 mph - N/A   Scattered Clouds